Hourly Data Report for November 02, 2020

L'ASSOMPTION
QUEBEC
Current Station Operator: ECCC - MSC

45°48'34.000" N
73°26'05.000" W
21.00 m
7014160
71524
WEW

Download Data

Hourly Data (November 2020)
Hourly Data Report for November 2, 2020
TIME
LST
Temp Definition
°C
Dew Point Definition
°C
Rel Hum Definition
%
Precip. Amount Definition
mm

Wind Dir Definition
10's deg

Wind Spd Definition
km/h
Visibility Definition
km
Stn Press Definition
kPa
Hmdx Definition


Wind Chill Definition


Weather Definition


00:00 4.4 2.1 85 0.0 22 13   99.72     LegendNANA
01:00 3.4 1.3 86 0.0 23 14   99.67     LegendNANA
02:00 2.1 0.1 86 0.0 23 9   99.65     LegendNANA
03:00 1.5 -0.2 88 0.0 22 8   99.60     LegendNANA
04:00 1.3 -0.3 89 0.0 22 9   99.57     LegendNANA
05:00 1.1 -0.3 91 0.0 23 6   99.53     LegendNANA
06:00 1.6 -2.6 74 0.0 31 26   99.58     LegendNANA
07:00 0.6 -4.8 67 0.0 32 32   99.70     LegendNANA
08:00 0.3 -6.5 61 0.0 31 32   99.84     LegendNANA
09:00 -0.1 -7.3 58 0.0 31 28   99.92   -6 LegendNANA
10:00 -0.3 -8.0 56 0.0 30 31   99.99   -7 LegendNANA
11:00 -0.3 -10.0 48 0.0 30 33   100.06   -7 LegendNANA
12:00 1.3 -10.0 43 0.0 30 25   100.08     LegendNANA
13:00 1.5 -10.2 42 0.0 30 27   100.14     LegendNANA
14:00 1.1 -10.6 41 0.0 29 29   100.18     LegendNANA
15:00 0.7 -9.8 45 0.0 28 20   100.21     LegendNANA
16:00 -0.2 -9.3 51 0.0 27 16   100.24   -5 LegendNANA
17:00 -0.4 -9.3 51 0.0 26 15   100.24   -5 LegendNANA
18:00 -0.8 -9.3 53 0.0 26 12   100.19   -5 LegendNANA
19:00 -0.6 -8.9 54 0.0 24 13   100.12   -5 LegendNANA
20:00 -2.2 -4.7 83 0.0 23 12   100.05   -6 LegendNANA
21:00 -2.0 -3.4 91 0.2 20 12   99.90   -6 LegendNANA
22:00 -1.5 -2.4 94 0.5 20 7   99.74   -4 LegendNANA
23:00 -1.2 -1.8 95 0.6 19 5   99.60   -3 LegendNANA

Notes on Data Quality.

Legend

  • E = Estimated
  • M = Missing
  • NA = Not Available*
  • [empty] = Indicates an unobserved value
Date modified: